Regional Weather Roundup
Issued by NWS

Home | Current Version | Previous Version | Graphics & Text | Print | Product List | Glossary On
Versions: 1 2 3 4 5 6 7 8 9 10 11 12 13 14 15 16 17 18 19 20 21 22 23 24 25 26 27 28 29 30 31 32 33 34 35 36 37 38 39 40 41 42 43 44 45 46 47 48 49 50
000
ASUS43 KLMK 221510
RWRKY
KENTUCKY REGIONAL WEATHER ROUNDUP
NATIONAL WEATHER SERVICE LOUISVILLE KY
1000 AM EST SUN JAN 22 2017

NOTE "FAIR" INDICATES FEW OR NO CLOUDS BELOW 12,000 FEET
WITH NO SIGNIFICANT WEATHER AND/OR OBSTRUCTIONS TO VISIBILITY.

KYZ001>023-026-027-061>063-070>075-221600-
WESTERN AND SOUTH CENTRAL KENTUCKY

CITY           SKY/WX    TMP DP  RH WIND       PRES   REMARKS
PADUCAH        CLOUDY    56  50  80 E5        29.44R
HENDERSON      CLOUDY    52  46  82 NE7       29.47F
OWENSBORO      PTSUNNY   53  49  86 E7        29.49F
HOPKINSVILLE   CLOUDY    55  53  95 E5        29.47S
BOWLING GREEN  CLOUDY    55  51  86 NE5       29.49S
GLASGOW        CLOUDY    52  52 100 CALM      29.49R
$$

KYZ024-025-028>034-038-045-046-053-221600-
NORTH CENTRAL KENTUCKY

CITY           SKY/WX    TMP DP  RH WIND       PRES   REMARKS
LOUISVILLE/SDF CLOUDY    52  48  86 N6        29.51F
LOUISVILLE/LOU CLOUDY    54  49  83 N5        29.52F
FORT KNOX      CLOUDY    50  50  98 N3        29.49F
$$

KYZ035>037-039>044-047>052-055>060-089>105-221600-
NORTHEAST KENTUCKY

CITY           SKY/WX    TMP DP  RH WIND       PRES   REMARKS
LEXINGTON      PTSUNNY   52  49  89 NE12      29.51F
COVINGTON      CLOUDY    52  51  97 N7        29.56S
FRANKFORT      CLOUDY    54  48  80 NE7       29.51F
$$

KYZ054-064>069-076>088-106>120-221600-
SOUTHEAST KENTUCKY

CITY           SKY/WX    TMP DP  RH WIND       PRES   REMARKS
JACKSON        CLOUDY    51  48  89 NE5       29.53R
LONDON         LGT RAIN  50  47  89 CALM      29.50F
SOMERSET       CLOUDY    52  50  93 CALM      29.51S
MIDDLESBORO    RAIN      48  48 100 CALM      29.52F
MONTICELLO     CLOUDY    54  50  86 NW9       29.51S
$$




USA.gov is the U.S. government's official web portal to all federal, state and local government web resources and services.